Temperature
9 9 9 9 9 8 7 6 6 6 6 5 2 1 1 1 -1 -2 -3 -3 -3 -4 -4 -5 -6 -7 -8 -9 -10 -10 -11 -11 -12 -12 -13 -13 -13 -14 -14 -14 -13 -13 -13 -13
8 9 8 8 8 7 6 6 6 6 5 4 4 3 1 -0 -1 -2 -2 -2 -3 -4 -5 -5 -6 -7 -8 -9 -10 -10 -10 -11 -12 -12 -13 -14 -14 -14 -13 -13 -13 -13 -13 -13
7 6 8 9 9 6 6 6 6 6 5 1 0 0 0 -0 -2 -2 -1 -2 -4 -4 -5 -6 -6 -7 -8 -9 -9 -10 -10 -11 -12 -12 -13 -14 -14 -13 -13 -13 -13 -13 -13 -13
5 7 11 11 8 7 7 7 5 6 4 2 2 1 1 -1 -1 -1 -2 -3 -4 -4 -5 -6 -6 -7 -8 -8 -9 -10 -10 -11 -12 -12 -13 -14 -14 -13 -13 -13 -13 -14 -14 -13
5 7 7 8 7 7 7 7 6 5 3 2 1 -1 -3 -2 -2 -1 -2 -3 -4 -5 -5 -6 -6 -7 -8 -8 -9 -9 -10 -11 -12 -12 -13 -13 -13 -13 -13 -13 -14 -14 -14 -13
4 8 9 11 8 7 7 6 7 6 1 -1 -2 -2 -1 -1 -1 -2 -2 -3 -4 -5 -5 -5 -6 -7 -7 -8 -8 -9 -10 -11 -11 -12 -13 -13 -13 -13 -13 -14 -14 -14 -14 -13
4 5 7 8 6 7 7 9 8 7 4 1 0 1 2 -0 -1 -2 -3 -4 -4 -5 -5 -5 -6 -7 -7 -7 -8 -9 -10 -10 -11 -12 -12 -13 -13 -13 -13 -14 -14 -14 -13 -13
3 4 7 7 5 6 7 9 9 8 7 4 4 3 1 -0 -1 -2 -3 -4 -4 -5 -5 -5 -6 -6 -7 -7 -8 -9 -9 -10 -11 -11 -12 -13 -13 -13 -13 -14 -14 -13 -13 -13
6 9 11 10 11 11 10 9 9 8 6 5 4 2 1 -0 -1 -2 -3 -4 -4 -4 -5 -5 -6 -6 -7 -7 -8 -8 -8 -9 -10 -11 -12 -12 -13 -14 -14 -13 -13 -13 -13 -13
5 7 10 10 11 10 10 9 8 7 6 5 4 2 0 -1 -1 -2 -3 -3 -4 -4 -5 -5 -6 -6 -7 -7 -8 -8 -8 -9 -9 -10 -11 -12 -12 -13 -14 -14 -13 -13 -13 -13
6 7 10 12 13 11 9 8 7 6 5 4 3 1 0 -0 -1 -2 -3 -3 -4 -4 -5 -5 -6 -6 -7 -7 -7 -7 -8 -8 -9 -10 -10 -11 -12 -12 -13 -13 -13 -13 -13 -13
11 13 11 14 14 12 10 8 7 6 4 3 2 2 1 -0 -1 -2 -3 -3 -4 -4 -5 -5 -6 -6 -6 -7 -7 -7 -8 -8 -9 -10 -10 -10 -11 -11 -12 -13 -13 -13 -13 -13
16 15 14 13 12 11 10 8 6 5 5 4 2 1 1 -0 -1 -2 -3 -3 -4 -4 -4 -5 -5 -6 -6 -6 -7 -7 -8 -8 -9 -9 -10 -10 -10 -11 -11 -11 -11 -12 -12 -13
15 14 12 12 11 11 9 7 6 5 4 3 2 1 0 -1 -1 -2 -2 -3 -3 -4 -4 -5 -5 -6 -6 -6 -7 -7 -8 -8 -8 -9 -9 -10 -10 -10 -11 -11 -11 -11 -11 -12
14 13 12 12 10 9 8 6 5 4 3 2 1 1 0 -0 -1 -2 -2 -3 -3 -4 -4 -5 -5 -5 -6 -6 -7 -7 -7 -8 -8 -9 -9 -9 -10 -10 -10 -10 -10 -10 -10 -11
15 12 10 9 9 9 7 6 4 4 3 3 1 1 0 -1 -1 -2 -2 -3 -3 -3 -4 -4 -5 -5 -5 -6 -6 -7 -7 -8 -8 -8 -9 -9 -9 -10 -10 -10 -10 -10 -10 -10
13 11 9 8 8 8 8 7 6 5 4 3 2 1 -0 -1 -1 -2 -2 -2 -3 -3 -4 -4 -4 -5 -5 -6 -6 -6 -7 -7 -7 -8 -8 -8 -8 -9 -10 -10 -10 -10 -10 -10
16 14 13 12 12 10 8 6 6 5 4 3 2 0 -0 -1 -1 -1 -2 -2 -3 -3 -3 -4 -4 -4 -5 -5 -6 -6 -6 -6 -6 -7 -7 -7 -8 -8 -9 -10 -10 -10 -11 -11
17 15 12 10 10 10 9 7 6 5 4 3 2 1 0 -0 -1 -2 -2 -2 -2 -3 -3 -3 -4 -4 -5 -5 -5 -5 -6 -6 -6 -6 -6 -6 -6 -7 -8 -9 -10 -10 -11 -12
18 16 13 10 9 9 8 7 6 5 4 2 2 1 -0 -1 -1 -2 -2 -2 -2 -2 -3 -3 -4 -4 -4 -5 -5 -5 -5 -5 -5 -5 -5 -6 -6 -6 -7 -8 -8 -9 -11 -11
18 16 14 11 9 8 8 7 6 5 4 2 2 1 0 -0 -1 -1 -2 -2 -2 -2 -3 -3 -3 -4 -4 -4 -5 -5 -5 -5 -5 -5 -5 -5 -6 -6 -6 -7 -7 -8 -9 -10
17 16 14 12 9 8 7 7 6 5 4 3 2 1 0 -1 -1 -1 -1 -2 -2 -2 -3 -3 -3 -4 -4 -4 -4 -5 -5 -5 -5 -5 -5 -6 -6 -6 -6 -7 -7 -8 -8 -9
17 15 14 12 10 8 7 7 6 5 4 3 3 2 0 -0 -1 -1 -1 -2 -2 -2 -3 -3 -3 -4 -4 -4 -4 -5 -5 -5 -5 -6 -6 -6 -6 -6 -7 -7 -7 -7 -7 -8
16 14 13 11 8 7 7 6 6 4 4 3 3 2 1 -0 -1 -1 -2 -2 -2 -2 -3 -3 -3 -4 -4 -4 -4 -5 -5 -5 -6 -6 -6 -6 -6 -7 -7 -7 -7 -7 -7 -8
15 13 12 10 8 8 7 6 5 4 3 2 2 1 0 -0 -0 -1 -2 -2 -2 -3 -3 -3 -3 -4 -4 -4 -4 -5 -5 -5 -6 -6 -6 -6 -7 -7 -7 -7 -7 -8 -8 -8
14 13 12 11 10 9 7 6 5 4 3 2 2 1 0 -1 -1 -2 -2 -3 -3 -3 -3 -3 -3 -4 -4 -4 -5 -5 -5 -6 -6 -6 -7 -7 -7 -7 -7 -7 -8 -8 -8 -8
12 11 10 9 8 7 7 6 5 5 4 3 3 2 1 -0 -1 -2 -3 -3 -3 -3 -3 -3 -4 -4 -4 -4 -5 -5 -5 -6 -6 -6 -7 -7 -7 -7 -8 -8 -8 -8 -8 -8
Wind_Speed
8 7 5 7 8 9 10 9 10 10 8 9 12 12 10 8 6 5 3 2 5 5 6 7 7 8 8 9 9 10 10 11 12 12 12 12 12 12 12 13 14 14 17 18
6 4 6 7 10 10 10 7 10 11 12 5 7 7 7 8 7 5 2 3 5 5 6 7 7 8 9 9 9 9 9 11 12 12 13 13 13 12 13 14 14 14 15 17
5 8 8 9 7 8 8 9 9 10 8 8 7 10 10 8 7 5 4 3 3 4 5 6 7 7 8 9 9 9 9 10 11 12 13 13 14 13 13 13 13 13 14 16
3 8 5 7 3 7 8 9 10 8 7 12 8 6 6 6 8 7 5 2 1 3 4 5 6 7 7 8 8 9 9 10 11 11 12 12 12 11 11 10 11 10 11 14
1 3 10 9 5 6 7 9 9 10 8 7 8 6 3 6 7 7 5 3 2 2 3 4 6 7 7 8 8 8 9 11 11 11 11 11 12 11 9 9 8 9 10 12
4 2 7 8 3 3 3 8 7 11 12 11 11 5 5 9 8 8 6 4 2 0 2 4 6 6 7 8 8 9 10 11 11 11 11 10 11 10 8 8 9 10 11 10
5 7 11 7 6 6 3 8 6 11 12 15 12 6 8 11 8 7 6 5 3 2 3 4 5 6 7 7 8 9 9 9 10 10 10 9 10 8 9 9 9 9 10 10
6 5 10 7 10 11 11 3 8 10 10 10 8 10 12 10 9 8 7 5 3 2 3 4 5 6 6 7 8 8 8 9 9 9 9 10 9 9 8 8 7 8 8 9
12 12 6 12 12 8 6 8 8 9 8 10 11 10 10 9 9 8 7 5 3 2 3 4 5 5 5 7 7 7 8 8 8 8 8 8 7 8 8 7 5 6 7 7
8 15 10 12 11 6 9 9 9 8 11 11 11 11 10 11 9 7 6 5 4 3 3 4 5 5 4 6 7 7 8 8 7 7 7 7 8 8 7 7 6 5 6 6
9 11 9 9 12 11 9 8 9 9 9 11 13 11 10 9 9 8 6 5 4 3 1 2 4 4 5 6 6 6 7 7 8 8 7 6 7 7 8 6 9 8 5 5
13 11 9 8 8 14 13 12 13 12 10 9 11 12 11 10 8 7 7 5 5 4 1 1 2 4 5 6 6 5 6 7 6 6 6 7 6 7 12 13 16 16 15 13
9 5 8 3 7 13 13 14 14 14 14 11 10 11 13 9 8 8 7 6 6 4 2 1 2 4 5 5 6 5 5 6 5 6 6 7 7 7 9 11 15 15 16 16
9 5 4 6 8 11 11 12 11 10 9 12 11 11 11 8 8 8 8 7 6 5 4 2 1 4 5 5 5 5 6 7 7 5 6 6 6 7 7 9 10 9 12 15
13 13 8 6 9 10 11 12 12 11 11 10 9 12 12 11 10 9 8 7 6 5 4 2 2 4 5 5 5 5 5 5 5 5 5 6 6 6 7 9 9 10 9 10
7 8 8 9 13 14 13 13 16 16 14 12 12 12 11 10 9 8 7 7 7 6 6 4 3 4 5 4 5 4 4 9 8 5 6 7 6 6 8 9 9 9 10 10
10 10 11 11 15 15 18 17 18 18 17 16 15 12 11 10 8 8 8 7 7 6 6 5 4 4 4 4 4 4 4 6 10 7 5 6 5 6 7 8 10 10 10 13
19 16 16 14 19 19 18 15 15 17 16 16 14 14 14 14 13 11 9 7 6 5 6 7 5 5 4 4 3 2 3 4 4 5 5 6 6 6 6 8 10 11 10 11
16 14 15 15 18 19 19 18 17 16 14 16 17 17 15 13 10 8 8 8 8 7 7 7 6 3 3 5 2 0 3 4 4 4 5 8 7 6 6 7 9 10 10 10
14 13 14 14 15 15 16 16 16 15 15 17 16 14 13 11 10 10 9 8 7 6 6 7 5 5 4 5 1 1 2 3 4 4 5 5 6 6 7 8 9 10 10 10
15 14 15 16 15 14 16 17 18 18 17 18 18 17 15 12 11 10 8 8 7 8 7 8 6 5 4 4 2 1 1 2 3 4 5 5 6 6 7 8 10 10 10 11
14 16 17 16 16 15 15 16 16 18 18 17 15 14 14 13 12 10 8 6 6 12 8 5 4 7 7 4 3 2 1 1 3 3 4 4 5 6 7 8 9 10 10 10
12 14 16 17 17 15 14 15 16 17 19 19 19 18 17 14 13 11 9 8 6 12 9 6 8 10 8 5 4 3 2 1 2 3 3 4 4 5 6 7 8 9 9 10
14 14 14 14 15 16 17 16 15 14 14 15 15 16 15 12 10 8 4 12 17 14 8 10 13 12 9 4 4 4 3 2 3 3 3 4 4 5 5 6 7 8 9 11
14 15 16 18 17 15 15 15 14 11 13 11 11 13 12 10 9 10 8 9 17 15 7 11 15 13 7 5 5 5 4 4 4 3 2 4 4 5 6 6 7 8 9 9
14 14 14 14 12 11 13 14 13 12 13 13 12 12 11 8 8 9 9 10 11 14 9 6 6 8 5 5 6 6 5 4 2 2 3 4 5 5 5 6 7 7 9 11
11 11 10 10 10 12 13 14 15 15 15 15 14 13 13 12 10 10 11 10 10 9 8 7 6 5 5 5 5 5 5 5 5 5 4 4 4 5 6 8 9 10 12 13
Wind_Direction
262 277 269 246 227 200 198 204 218 247 242 233 198 190 191 188 187 179 158 53 26 4 346 343 340 335 332 329 331 336 336 340 339 335 331 330 329 327 328 332 333 329 331 333
295 327 306 271 245 221 221 221 238 262 269 233 151 152 170 180 184 183 145 51 21 356 345 343 337 332 331 331 332 334 334 336 336 338 337 336 334 337 338 336 333 334 335 337
288 315 337 295 247 194 211 213 205 229 235 149 161 185 186 184 188 173 118 63 12 340 330 329 328 329 331 330 329 333 333 333 336 336 336 336 339 341 341 337 337 339 339 343
314 354 294 254 180 197 220 242 218 226 193 178 174 156 151 168 176 158 128 106 338 317 321 324 328 331 329 329 332 333 333 334 335 336 334 334 338 341 339 336 339 339 339 347
91 303 281 291 233 203 216 274 219 198 169 139 111 105 190 194 171 155 143 142 182 273 297 328 338 336 336 336 336 338 341 339 337 337 337 339 342 341 338 336 335 339 347 350
143 228 257 256 162 130 78 281 221 172 164 156 151 184 220 174 157 143 140 138 143 314 347 355 342 343 348 343 344 347 344 339 338 342 341 341 342 339 341 340 343 349 353 353
188 233 264 247 150 134 185 259 179 166 166 168 187 188 150 146 145 142 139 136 128 74 26 352 340 355 356 347 346 339 337 338 343 344 342 348 342 339 344 346 341 344 351 352
168 212 259 190 147 188 217 147 155 161 162 164 148 123 136 144 145 144 142 141 132 81 27 351 353 6 358 345 331 330 334 339 340 341 349 357 338 338 341 342 338 342 350 354
195 221 245 176 200 206 160 167 173 163 160 143 139 149 152 152 150 150 153 156 144 103 41 359 358 10 357 328 326 332 335 335 333 338 343 344 337 335 340 345 341 347 353 353
242 261 247 221 231 208 185 181 168 155 153 152 152 155 155 156 156 157 160 159 148 114 58 2 349 356 337 319 326 335 333 330 333 340 342 340 347 346 341 342 342 338 336 336
253 268 284 253 220 198 175 152 143 141 153 157 149 154 161 159 161 165 163 159 150 137 95 340 338 344 330 321 327 336 331 330 333 344 334 335 343 342 345 332 355 354 333 317
237 227 207 239 209 173 165 167 161 150 148 153 156 159 158 160 161 162 162 158 156 157 162 310 334 336 322 315 324 337 338 332 325 332 338 338 329 333 351 355 357 357 353 352
226 211 198 245 174 172 173 166 163 161 159 159 157 158 157 156 163 161 163 167 169 173 182 205 324 325 314 310 326 341 332 320 317 336 334 334 335 334 332 338 347 350 350 347
220 165 210 192 184 173 158 151 147 138 143 152 153 156 154 148 157 168 177 179 177 178 178 189 295 306 301 309 323 332 329 326 334 316 318 320 323 323 323 326 329 329 334 337
221 206 208 165 144 141 141 142 146 150 148 151 155 160 161 162 173 181 181 180 176 174 179 197 266 290 292 310 324 327 327 315 314 315 317 317 321 328 329 327 327 326 325 329
196 175 154 152 161 161 159 164 170 171 167 166 169 174 172 167 166 170 179 182 177 186 191 206 247 273 292 306 320 321 320 337 343 333 325 326 326 334 338 337 336 334 333 327
168 186 182 181 181 182 185 184 181 175 172 174 177 169 159 156 164 184 194 192 189 193 197 209 229 269 289 303 312 311 315 325 344 337 321 318 322 333 336 340 342 340 338 338
213 203 186 185 186 188 190 185 176 173 176 176 162 162 170 177 187 192 187 178 184 203 220 211 223 254 268 289 293 300 312 314 316 315 317 325 344 337 332 340 341 338 339 344
213 199 187 182 181 183 184 183 179 174 165 161 168 178 183 185 183 174 168 176 188 205 212 204 221 222 268 286 339 217 319 321 325 326 321 341 349 334 339 342 340 335 339 347
203 190 180 177 174 175 178 175 169 167 167 167 169 173 179 184 177 172 176 195 205 196 183 193 208 216 242 271 306 170 320 325 331 332 332 334 334 337 341 343 342 338 341 344
192 181 176 175 174 174 172 168 168 170 169 171 175 181 183 181 176 173 180 207 219 199 196 209 198 199 231 238 157 145 326 328 331 331 331 332 333 336 340 342 343 342 342 340
183 180 177 172 170 171 169 169 170 168 168 175 178 174 171 174 179 186 202 203 187 183 184 196 192 211 222 182 152 160 192 312 319 320 326 328 330 332 333 335 338 339 337 333
177 176 173 172 171 165 162 168 171 171 174 178 180 180 181 182 182 186 203 204 185 190 181 188 202 210 205 160 163 169 186 254 300 309 316 317 317 319 320 324 328 329 327 328
170 168 166 158 152 158 170 176 174 176 178 180 182 179 176 176 187 198 189 178 183 189 188 197 202 205 191 163 172 179 193 223 262 277 296 305 306 307 309 314 320 323 323 324
165 160 157 161 170 179 174 165 164 165 169 176 178 178 180 181 181 184 178 172 180 181 181 200 202 200 180 175 184 189 197 217 229 232 269 296 302 306 307 310 317 320 319 319
168 172 175 178 175 168 165 168 174 177 178 180 183 183 183 177 163 164 170 173 181 182 180 193 203 195 174 185 193 196 200 216 243 250 260 276 290 299 303 308 310 313 313 315
154 158 158 162 167 168 170 176 178 181 182 182 180 180 180 178 176 174 174 176 181 181 181 188 192 188 187 190 194 201 205 210 217 225 242 258 274 285 295 301 305 307 309 311
Height
1602 1599 1598 1597 1597 1599 1602 1601 1603 1591 1587 1582 1584 1585 1587 1590 1592 1592 1591 1588 1585 1582 1579 1575 1571 1566 1561 1555 1548 1541 1534 1527 1521 1515 1509 1503 1496 1490 1483 1477 1470 1463 1455 1447
1602 1598 1597 1595 1591 1593 1595 1595 1592 1587 1584 1576 1578 1582 1585 1587 1589 1589 1587 1585 1583 1581 1577 1573 1569 1564 1559 1553 1547 1540 1533 1527 1521 1515 1509 1503 1496 1490 1484 1478 1471 1464 1457 1450
1608 1603 1596 1590 1582 1587 1586 1583 1582 1581 1576 1576 1578 1580 1582 1584 1586 1585 1584 1583 1581 1579 1575 1571 1567 1563 1558 1552 1546 1540 1534 1528 1522 1515 1509 1503 1497 1491 1485 1478 1472 1466 1460 1454
1615 1606 1594 1578 1576 1577 1577 1573 1571 1569 1569 1571 1573 1577 1580 1582 1583 1581 1581 1580 1578 1576 1573 1570 1566 1562 1557 1552 1546 1539 1533 1528 1522 1515 1509 1503 1497 1491 1485 1480 1473 1467 1462 1458
1618 1612 1599 1579 1573 1573 1575 1570 1562 1564 1565 1569 1572 1576 1578 1579 1579 1578 1578 1577 1576 1574 1571 1568 1565 1561 1556 1551 1545 1539 1533 1528 1522 1516 1509 1503 1497 1492 1487 1481 1475 1469 1465 1461
1621 1609 1596 1571 1570 1570 1574 1571 1557 1557 1561 1565 1570 1576 1573 1574 1575 1576 1576 1575 1574 1572 1570 1567 1564 1560 1555 1550 1544 1538 1533 1528 1523 1517 1510 1505 1500 1494 1489 1483 1477 1472 1468 1464
1617 1612 1587 1566 1568 1572 1576 1560 1551 1552 1555 1559 1562 1564 1567 1569 1571 1573 1573 1573 1572 1570 1568 1566 1562 1559 1555 1550 1544 1539 1535 1530 1524 1518 1512 1506 1501 1497 1491 1485 1480 1475 1471 1468
1614 1612 1585 1561 1564 1565 1555 1548 1548 1550 1552 1556 1558 1560 1563 1566 1568 1570 1570 1570 1570 1569 1567 1564 1562 1558 1554 1549 1545 1541 1536 1531 1525 1519 1513 1508 1503 1498 1493 1487 1482 1478 1474 1470
1583 1568 1550 1549 1546 1545 1544 1545 1546 1548 1550 1554 1556 1558 1560 1563 1565 1567 1567 1568 1567 1567 1565 1563 1560 1557 1553 1549 1545 1541 1536 1531 1526 1520 1515 1509 1504 1499 1494 1489 1485 1481 1476 1473
1568 1550 1543 1542 1541 1540 1540 1541 1543 1545 1548 1551 1553 1555 1557 1560 1562 1563 1564 1565 1565 1565 1563 1562 1559 1556 1552 1549 1546 1542 1537 1532 1527 1521 1516 1511 1505 1500 1495 1491 1487 1483 1479 1475
1557 1542 1537 1532 1532 1533 1535 1537 1540 1543 1546 1548 1551 1552 1554 1557 1559 1560 1561 1562 1562 1562 1561 1559 1557 1555 1552 1549 1546 1542 1538 1533 1528 1523 1517 1512 1507 1502 1497 1493 1489 1485 1480 1476
1540 1529 1530 1526 1527 1527 1529 1531 1535 1538 1542 1545 1547 1549 1552 1554 1556 1558 1559 1559 1559 1559 1558 1557 1555 1553 1551 1548 1545 1541 1537 1533 1529 1524 1519 1514 1509 1505 1500 1495 1489 1484 1480 1477
1524 1523 1522 1521 1522 1523 1524 1527 1531 1535 1538 1541 1544 1546 1549 1551 1553 1555 1556 1557 1557 1557 1556 1555 1553 1552 1550 1547 1544 1541 1537 1533 1529 1525 1520 1515 1510 1505 1500 1496 1491 1485 1480 1476
1519 1518 1516 1514 1517 1518 1520 1523 1528 1531 1535 1538 1540 1542 1545 1548 1550 1552 1553 1554 1555 1554 1554 1553 1551 1550 1548 1546 1543 1540 1537 1533 1530 1526 1521 1517 1512 1507 1502 1497 1491 1486 1481 1476
1510 1510 1510 1510 1511 1513 1515 1519 1522 1525 1529 1532 1536 1539 1542 1545 1547 1549 1551 1552 1552 1552 1551 1551 1550 1548 1547 1545 1542 1539 1536 1533 1529 1526 1522 1518 1513 1508 1504 1499 1493 1488 1482 1477
1502 1502 1502 1502 1504 1506 1509 1511 1514 1518 1522 1527 1531 1535 1539 1542 1544 1546 1548 1549 1549 1549 1549 1548 1548 1547 1545 1543 1541 1538 1535 1532 1529 1525 1521 1517 1513 1508 1504 1499 1494 1489 1483 1478
1494 1491 1492 1494 1496 1498 1500 1503 1506 1511 1516 1521 1526 1531 1534 1537 1540 1542 1544 1546 1546 1546 1546 1546 1545 1544 1543 1541 1539 1537 1534 1531 1528 1524 1520 1516 1512 1507 1503 1499 1494 1489 1485 1479
1480 1481 1483 1486 1488 1491 1493 1498 1501 1506 1512 1517 1522 1526 1529 1532 1535 1538 1541 1542 1543 1543 1543 1543 1543 1542 1541 1539 1538 1535 1533 1530 1527 1523 1519 1515 1511 1507 1503 1498 1494 1489 1484 1480
1469 1470 1473 1477 1482 1485 1487 1490 1495 1501 1507 1511 1515 1519 1524 1528 1531 1534 1537 1538 1539 1540 1540 1540 1540 1539 1538 1537 1536 1534 1532 1529 1526 1523 1519 1515 1512 1507 1502 1498 1493 1489 1484 1479
1461 1462 1464 1469 1474 1478 1481 1484 1489 1495 1500 1505 1510 1515 1519 1523 1526 1529 1532 1534 1536 1537 1537 1537 1536 1536 1535 1535 1534 1532 1530 1528 1525 1522 1519 1515 1511 1507 1502 1497 1493 1488 1483 1479
1453 1454 1456 1460 1465 1470 1474 1478 1482 1487 1493 1498 1503 1508 1513 1518 1521 1524 1527 1530 1532 1533 1533 1534 1533 1533 1533 1532 1532 1530 1528 1527 1524 1522 1519 1515 1511 1507 1503 1498 1493 1488 1483 1478
1445 1447 1449 1453 1458 1462 1466 1471 1476 1482 1487 1492 1497 1503 1508 1512 1515 1519 1522 1526 1528 1529 1530 1530 1530 1530 1530 1530 1529 1528 1527 1525 1523 1521 1518 1515 1511 1507 1503 1498 1493 1488 1483 1478
1437 1440 1443 1446 1450 1455 1460 1464 1469 1474 1479 1484 1489 1494 1499 1504 1509 1513 1516 1520 1523 1525 1526 1527 1527 1527 1527 1527 1527 1526 1525 1524 1522 1520 1517 1514 1511 1507 1503 1498 1494 1489 1483 1478
1429 1432 1436 1440 1445 1449 1452 1456 1462 1468 1474 1480 1484 1489 1494 1499 1503 1508 1513 1516 1518 1520 1522 1523 1524 1524 1524 1524 1524 1523 1523 1521 1520 1518 1516 1513 1510 1506 1502 1498 1493 1489 1483 1478
1420 1424 1428 1432 1436 1439 1445 1450 1456 1461 1467 1472 1478 1483 1488 1493 1498 1502 1506 1509 1512 1515 1517 1519 1519 1520 1520 1520 1520 1520 1519 1518 1517 1515 1513 1511 1508 1505 1501 1497 1492 1488 1483 1477
1411 1414 1418 1423 1428 1432 1437 1442 1446 1452 1458 1463 1469 1474 1480 1486 1492 1497 1500 1503 1506 1509 1512 1514 1515 1515 1516 1516 1516 1516 1516 1515 1513 1512 1510 1508 1506 1503 1500 1496 1491 1487 1482 1477
1403 1407 1411 1416 1420 1425 1430 1434 1438 1444 1450 1455 1460 1466 1472 1478 1483 1488 1492 1496 1500 1503 1506 1508 1510 1510 1511 1512 1512 1512 1512 1511 1510 1509 1507 1505 1503 1500 1497 1494 1490 1485 1481 1475